Flag for Uruguay Weather past 2 weeks in Melo, Uruguay

Now
52 °F

Passing clouds.


Feels Like: 52 °F
Forecast: 44 / 65 °F
Wind: 2 mph from East

Location: Pelotas Airport

Current Time: Sep 2, 2015 at 2:03:06 AM

Latest Report: Sep 2, 2015 at 1:00 AM


Visibility: N/A

Pressure: 30.30 "Hg

Humidity: 94%

Dew point: 50 °F

Location of MeloLocation

Historic Weather in Melo — Graph

°F

Melo temperature yesterday

Maximum temperature yesterday: 63 °F (at 3:00 PM)
Minimum temperature yesterday: 52 °F (at 9:00 PM)
Average temperature yesterday: 57 °F

Past Weeks' High & Low Weather Summary

 TemperatureHumidityPressure
High93 °F (Aug 31, 1:00 PM)100% (Aug 18, 6:00 AM)30.36 "Hg (Aug 18, 6:00 AM)
Low43 °F (Aug 28, 7:00 AM)25% (Aug 29, 12:00 PM)29.71 "Hg (Aug 26, 6:00 PM)
Average63 °F81%30.05 "Hg
* Reported Aug 18 6:00 AM — Midnight between Sep 1 and Sep 2, Melo, Weather by CustomWeather, © 2015

Note: Actual official high and low records may vary slightly from our data, if they occured in-between our weather recording intervals... More about our weather records

Advertising

Melo weather history for previous 24 hours

 ConditionsComfort  
Time TempWeatherWind HumidityBarometerVisibility
12:00 AM
Wed, Sep 2
54 °FPassing clouds.3 mph94%30.33 "HgN/A
11:00 PM
Tue, Sep 1
52 °FPassing clouds.No wind94%30.33 "HgN/A
10:00 PM54 °FPassing clouds.5 mph88%30.33 "HgN/A
9:00 PM52 °FClear.7 mph94%30.36 "Hg10 mi
8:00 PM54 °FClear.7 mph82%30.33 "Hg10 mi
6:00 PM57 °FPassing clouds.6 mph59%30.33 "HgN/A
5:00 PM59 °FPartly sunny.12 mph55%30.33 "HgN/A
4:00 PM57 °FScattered clouds.7 mph67%30.33 "HgN/A
3:00 PM63 °FScattered clouds.12 mph49%30.33 "HgN/A
2:00 PM61 °FScattered clouds.9 mph48%30.33 "HgN/A
1:00 PM61 °FPartly sunny.14 mph48%30.36 "HgN/A
12:00 PM61 °FPartly sunny.14 mph52%30.36 "HgN/A
11:00 AM59 °FPartly sunny.14 mph55%30.36 "HgN/A
10:00 AM59 °FPartly sunny.12 mph63%30.36 "HgN/A
9:00 AM55 °FScattered clouds.12 mph72%30.33 "HgN/A
8:00 AM54 °FPassing clouds.9 mph88%30.30 "HgN/A
7:00 AM54 °FPartly sunny.13 mph88%30.27 "HgN/A
6:00 AM54 °FBroken clouds.12 mph88%30.24 "HgN/A
5:00 AM55 °FPassing clouds.14 mph88%30.21 "HgN/A
4:00 AM55 °FPassing clouds.18 mph100%30.21 "HgN/A
3:00 AM57 °FPassing clouds.16 mph100%30.18 "HgN/A
2:00 AM59 °FPassing clouds.16 mph94%30.18 "HgN/A
Weather by CustomWeather, © 2015

See weather overviewHow to use our weather pages